Location: Zagreb
(45.8000°N, 16.0000°E)
Time: 08:47:21
(UTC+01:00)

Explorer 7 - All Passes

Search period start: 28 January 2022 00:00
Search period end: 07 February 2022 00:00
Orbit: 483 x 674 km, 50.3° (Epoch: 27 January)

Date Brightness Start Highest point End Pass type
(mag) Time Alt. Az. Time Alt. Az. Time Alt. Az.
28 Jan - 07:11:57 10° SSE 07:13:04 11° SE 07:14:13 10° ESE daylight
28 Jan - 08:48:48 10° SW 08:52:43 57° SSE 08:56:53 10° ENE daylight
28 Jan - 10:29:12 10° W 10:33:16 53° NNW 10:37:36 10° ENE daylight
28 Jan - 12:10:03 10° WNW 12:14:15 49° N 12:18:42 10° E daylight
28 Jan - 13:50:31 10° WNW 13:54:59 77° SSW 13:59:42 10° ESE daylight
28 Jan - 15:31:41 10° W 15:35:03 20° SW 15:38:31 10° S daylight
29 Jan - 07:13:59 10° S 07:16:38 18° SE 07:19:22 10° E daylight
29 Jan - 08:52:32 10° WSW 08:56:31 81° SSE 09:00:47 10° ENE daylight
29 Jan - 10:33:13 10° W 10:37:14 47° N 10:41:32 10° ENE daylight
29 Jan - 12:13:57 10° WNW 12:18:12 56° NNE 12:22:44 10° E daylight
29 Jan - 13:54:25 10° WNW 13:58:47 56° SSW 14:03:24 10° SE daylight
29 Jan - 15:36:29 10° WSW 15:38:39 13° SW 15:40:52 10° SSW daylight
30 Jan - 07:16:56 10° SSW 07:20:14 27° SE 07:23:42 10° E daylight
30 Jan - 08:56:24 10° WSW 09:00:23 76° NNW 09:04:40 10° ENE daylight
30 Jan - 10:37:13 10° WNW 10:41:13 45° N 10:45:30 10° ENE daylight
30 Jan - 12:17:49 10° WNW 12:22:08 67° NNE 12:26:43 10° ESE daylight
30 Jan - 13:58:22 10° WNW 14:02:32 39° SW 14:06:54 10° SSE daylight
31 Jan - 07:20:17 10° SSW 07:23:56 40° SE 07:27:47 10° ENE daylight
31 Jan - 09:00:20 10° W 09:04:17 60° NNW 09:08:31 10° ENE daylight
31 Jan - 10:41:11 10° WNW 10:45:13 45° N 10:49:30 10° ENE daylight
31 Jan - 12:21:41 10° WNW 12:26:02 85° NNE 12:30:38 10° ESE daylight
31 Jan - 14:02:28 10° W 14:06:15 27° SW 14:10:10 10° SSE daylight
01 Feb - 05:46:41 10° SSE 05:48:00 11° SE 05:49:19 10° ESE visible
01 Feb - 07:23:51 10° SW 07:27:40 60° SSE 07:31:44 10° ENE daylight
01 Feb - 09:04:19 10° W 09:08:14 50° N 09:12:24 10° ENE daylight
01 Feb - 10:45:07 10° WNW 10:49:11 49° N 10:53:30 10° E daylight
01 Feb - 12:25:33 10° WNW 12:29:52 73° SSW 12:34:27 10° SE daylight
01 Feb - 14:06:49 10° W 14:09:53 18° SW 14:13:04 10° S daylight
02 Feb - 05:48:54 10° S 05:51:34 18° SE 05:54:19 10° E visible
02 Feb - 07:27:36 10° WSW 07:31:29 85° SSE 07:35:37 10° ENE daylight
02 Feb - 09:08:19 10° W 09:12:12 45° N 09:16:20 10° ENE daylight
02 Feb - 10:49:00 10° WNW 10:53:08 56° NNE 10:57:31 10° E daylight
02 Feb - 12:29:27 10° WNW 12:33:39 52° SSW 12:38:07 10° SE daylight
02 Feb - 14:11:53 10° WSW 14:13:29 12° SW 14:15:05 10° SSW daylight
03 Feb - 05:51:54 10° SSW 05:55:12 28° SE 05:58:36 10° E visible
03 Feb - 07:31:28 10° WSW 07:35:21 72° NNW 07:39:29 10° ENE daylight
03 Feb - 09:12:18 10° WNW 09:16:11 44° N 09:20:17 10° ENE daylight
03 Feb - 10:52:52 10° WNW 10:57:02 69° NNE 11:01:30 10° ESE daylight
03 Feb - 12:33:25 10° WNW 12:37:24 36° SW 12:41:35 10° SSE daylight
04 Feb - 05:55:17 10° SW 05:58:53 42° SE 06:02:39 10° ENE visible
04 Feb - 07:35:25 10° W 07:39:15 57° NNW 07:43:20 10° ENE daylight
04 Feb - 09:16:16 10° WNW 09:20:09 45° N 09:24:17 10° E daylight
04 Feb - 10:56:43 10° WNW 11:00:54 88° NNE 11:05:23 10° ESE daylight
04 Feb - 12:37:33 10° W 12:41:05 24° SW 12:44:46 10° SSE daylight
05 Feb - 04:21:23 10° SSE 04:22:55 12° SE 04:24:27 10° ESE visible
05 Feb - 05:58:53 10° SW 06:02:38 63° SSE 06:06:35 10° ENE visible
05 Feb - 07:39:24 10° W 07:43:12 48° N 07:47:13 10° ENE daylight
05 Feb - 09:20:10 10° WNW 09:24:07 49° N 09:28:18 10° E daylight
05 Feb - 11:00:34 10° WNW 11:04:44 68° SSW 11:09:10 10° SE daylight
05 Feb - 12:41:59 10° W 12:44:43 16° SW 12:47:32 10° S daylight
06 Feb - 04:23:46 10° S 04:26:29 19° SE 04:29:16 10° E visible
06 Feb - 06:02:38 10° WSW 06:06:27 89° SE 06:10:27 10° ENE visible
06 Feb - 07:43:24 10° WNW 07:47:09 44° N 07:51:08 10° ENE daylight
06 Feb - 09:24:03 10° WNW 09:28:03 57° NNE 09:32:18 10° E daylight
06 Feb - 11:04:29 10° WNW 11:08:31 48° SSW 11:12:48 10° SE daylight
06 Feb - 12:47:55 10° SW 12:48:17 10° SW 12:48:40 10° SW daylight
